Location: Barnston
(51.8500°N, 0.4000°E)
Time: 13:01:04
(UTC+00:00)

Cosmos 1782 - Pass Details

Date: 26 September 2023
Orbit: 518 x 529 km, 82.5° (Epoch: 11 December)

Event Time Altitude Azimuth Distance (km) Brightness Sun altitude
Exits shadow 02:43:57 28° 94° (E) 996 4.5 -27.6°
Drops below altitude 10° 02:47:25 10° 31° (NNE) 1,765 6.2 -27.2°
Enters shadow 03:49:04 -56° 194° (SSW) 11,235 9.4 -19.0°
Maximum altitude 04:19:57 29° 290° (WNW) 991 3.7 -14.6°
